www.pogodaiklimat.ru

Погода и климат >> Архив погоды >> Россия >> Ямало-Ненецкий АО >> Гыда


ПОГОДА в Гыде

  • Прогноз погоды в Гыде
  • Монитор погоды в Гыде

АРХИВ ПОГОДЫ в Гыде

Время (UTC), дата Ветер
(напр.,м/с)
 
Видим.   Явления Облачность Т
(С)
Тd
(С)
f
(%)
Тe
(С)
Тes
(С)
Комфортность P
(гПа)
Po
(гПа)
Тmin
(С)
Tmax
(С)
R
(мм)
R24
(мм)
S
(см)
03 16.05 Ю 3 н/о н/о -9.3 -10.8 89 -15 -15 1027.8 1026.7 -9.3
06 16.05 Ю 4 н/о н/о -7.3 -10.0 81 -14 -14 1026.4 1025.3 -9.4
09 16.05 Ю 5 н/о н/о -4.9 -8.1 78 -12 -12 1026.3 1025.3
12 16.05 ЮВ 3 н/о н/о -4.8 -8.0 78 -10 -10 1025.0 1024.0
15 16.05 Ю 4 н/о н/о -6.4 -8.7 84 -13 -13 1023.7 1022.7
18 16.05 Ю 6 н/о н/о -9.2 -11.1 86 -18 -18 1023.8 1022.7 -4.4
21 16.05 Ю 4 н/о н/о -10.2 -12.1 86 -17 -17 1022.4 1021.3
00 17.05 ЮВ 4 н/о н/о -8.3 -11.1 80 -15 -15 1022.4 1021.3
03 17.05 ЮВ 3 н/о н/о -6.0 -9.4 77 -11 -11 1022.3 1021.3 -10.5
06 17.05 В 4 н/о н/о -5.1 -8.8 75 -11 -11 1022.3 1021.3 -10.5
09 17.05 ЮВ 5 н/о н/о -4.7 -7.9 78 -12 -12 1022.3 1021.3
12 17.05 В 4 н/о н/о -5.1 -7.5 83 -11 -11 1022.3 1021.3
15 17.05 В 5 н/о н/о -6.0 -8.6 82 -13 -13 1022.3 1021.3
18 17.05 В 3 н/о н/о -9.9 -11.6 87 -16 -16 1022.4 1021.3 -4.4
21 17.05 В 5 н/о н/о -10.8 -13.0 84 -19 -19 1021.1 1020.0
00 18.05 В 8 н/о н/о -10.4 -13.3 79 -20 -20 1021.1 1020.0
03 18.05 В 7 н/о н/о -8.0 -11.1 78 -17 -17 1021.1 1020.0 -11.5
06 18.05 В 8-10
{12}
н/о н/о -5.7 -8.8 79 -15 -15 1021.0 1020.0 -11.5
09 18.05 В 9-12
{12}
н/о н/о -4.1 -7.0 80 -13 -13 1021.0 1020.0
12 18.05 В 9-11
{13}
н/о н/о -4.3 -6.7 83 -13 -13 1021.0 1020.0
15 18.05 В 8-11
{11}
н/о н/о -6.5 -8.4 86 -16 -16 1021.0 1020.0
18 18.05 В 9-11
{13}
н/о н/о -9.9 -11.6 87 -20 -20 1021.1 1020.0 -3.9
21 18.05 В 6
{11}
н/о н/о -12.3 -14.2 86 -21 -21 1019.8 1018.7
00 19.05 В 9-12
{12}
н/о н/о -12.2 -14.3 84 -23 -23 1018.4 1017.3
03 19.05 В 9-11
{12}
н/о н/о -10.6 -13.1 82 -21 -21 1018.4 1017.3 -12.5
06 19.05 В 10-13
{13}
н/о н/о -7.6 -10.0 83 -18 -18 1017.0 1016.0 -12.5
09 19.05 В 8-12
{13}
н/о н/о -5.8 -8.4 82 -15 -15 1017.0 1016.0
12 19.05 В 9-13
{13}
н/о н/о -5.9 -8.0 85 -15 -15 1015.7 1014.7
15 19.05 В 9-13
{15}
н/о н/о -7.9 -9.8 86 -18 -18 1015.7 1014.7
18 19.05 В 9-12
{14}
н/о н/о -10.3 -12.2 86 -21 -21 1014.4 1013.3 -5.2
21 19.05 СВ 11-15
{15}
н/о н/о -11.9 -13.8 86 -23 -23 1013.1 1012.0
00 20.05 В 8-11
{15}
н/о н/о -11.4 -13.8 82 -21 -21 1013.1 1012.0
03 20.05 В 9-13
{14}
н/о н/о -9.7 -12.3 81 -20 -20 1013.1 1012.0 -12.0
06 20.05 СВ 11-15
{16}
н/о н/о -7.9 -10.4 82 -19 -19 1013.0 1012.0 -12.0
09 20.05 СВ 11-15
{16}
н/о н/о -6.9 -9.4 82 -17 -17 1014.3 1013.3
12 20.05 СВ 9-12
{15}
н/о н/о -7.4 -9.6 84 -17 -17 1015.7 1014.7
15 20.05 СВ 6
{15}
н/о н/о -9.1 -11.3 84 -18 -18 1015.8 1014.7
18 20.05 СВ 6
{11}
н/о н/о -10.8 -13.0 84 -19 -19 1014.4 1013.3 -6.8
21 20.05 СВ 7 н/о н/о -11.6 -13.8 84 -21 -21 1013.1 1012.0
00 21.05 С 8
{10}
н/о н/о -11.2 -13.5 83 -21 -21 1013.1 1012.0
03 21.05 СВ 9-12
{12}
н/о н/о -9.2 -11.7 82 -19 -19 1011.7 1010.7 -11.9
06 21.05 С 9-10
{12}
н/о н/о -7.0 -9.9 80 -17 -17 1011.7 1010.7 -11.9
09 21.05 С 9-11
{12}
н/о н/о -5.6 -8.5 80 -15 -15 1011.7 1010.7
12 21.05 С 7
{11}
н/о н/о -5.6 -8.0 83 -14 -14 1011.7 1010.7
15 21.05 С 6
{11}
н/о н/о -8.2 -10.3 85 -17 -17 1010.3 1009.3
18 21.05 С 5 н/о н/о -11.5 -13.1 88 -19 -19 1010.4 1009.3 -5.3
21 21.05 С 5 н/о н/о -11.2 -12.6 89 -19 -19 1009.1 1008.0
00 22.05 СВ 5 н/о н/о -10.1 -11.4 90 -18 -18 1009.0 1008.0
03 22.05 СВ 4 н/о н/о -8.5 -11.0 82 -15 -15 1007.7 1006.7 -11.9
06 22.05 СВ 7 н/о н/о -6.3 -9.3 79 -15 1007.7 1006.7 -11.9
09 22.05 С 6 н/о н/о -5.8 -9.3 76 -14 1007.7 1006.7
12 22.05 С 4 н/о н/о -5.5 -8.2 81 -12 1007.7 1006.7
15 22.05 С 3 н/о н/о -7.9 -9.8 86 -14 1007.7 1006.7
18 22.05 С 2 н/о н/о -12.5 -14.1 88 -17 1007.8 1006.7 -5.4
21 22.05 С 2 н/о н/о -15.3 -17.1 86 -20 1007.8 1006.7
00 23.05 С 3 н/о н/о -14.0 -15.5 88 -20 1007.8 1006.7

 

Местоположение метеостанции Гыда (Ямало-Ненецкий АО, Россия): широта 70.88 долгота 78.47 высота над уровнем моря 8 м.

В архиве по умолчанию представлена погода в Гыде за последнюю неделю. Архивные данные за месяц целиком и за предыдущие месяцы, начиная с января 2011 года, Вы можете получить, выбрав интересующий диапазон дат из раскрывающегося списка и нажав кнопку "Ввод!".


*Определитесь, кто Вы:
робот инопланетянин человек

Внимание! Время в таблицах - всемирное. Для получения местного времени необходимо прибавить поправку, которая равна 5 ч.

Смотрите также архив погоды в соседних городах и на ближайших метеорологических станциях:

Погода в Сопочной Карге (Красноярский край, Россия) (186 км)
Погода в Карауле (Красноярский край, Россия) (196 км)
Погода в Антипаюте (Ямало-Ненецкий АО, Россия) (209 км)
Погода в Сеяхе (Ямало-Ненецкий АО, Россия) (234 км)
Погода в Тамбее (Ямало-Ненецкий АО, Россия) (248 км)
Погода на Острове Диксон (Красноярский край, Россия) (301 км)
Погода в Тазовском (Ямало-Ненецкий АО, Россия) (379 км)
Погода в Потапово (Красноярский край, Россия) (387 км)
Погода в Имени Попова (Ямало-Ненецкий АО, Россия) (396 км)
Погода в Норильске (Красноярский край, Россия) (409 км)

Пояснения к столбцам:

Ветер - указаны скорость ветра в м/с - средняя за 10 мин, порывы в срок и между сроками (в фигурных скобках) и направление, откуда дует ветер: С - северный, СВ - северо-восточный, В - восточный, ЮВ - юго-восточный, Ю - южный, ЮЗ - юго-западный, З - западный, СЗ - северо-западный.
Видимость - горизонтальная дальность видимости в метрах или километрах. При видимости от 1 до 10 км при отсутствии осадков обычно наблюдается дымка, при ухудшении видимости до 1 км и менее - туман. В сухую погоду видимость может ухудшаться дымом, пылью или мглою.
Явления - указаны атмосферные явления, наблюдавшиеся в срок или в последний час перед сроком; фигурными скобками обозначены явления, наблюдавшиеся между сроками (за 1-3 часа до срока); квадратными скобками обозначены град или гололедные отложения с указанием их диаметра в мм.
Облачность - указаны через наклонную черту общая и нижняя облачность в баллах и высота нижней границы облаков в метрах; квадратными скобками обозначены формы облаков: Ci - перистые, Cs - перисто-слоистые, Cc - перисто-кучевые, Ac - высококучевые, As - высокослоистые, Sc - слоисто-кучевые, Ns - слоисто-дождевые, Cu - кучевые, Cb - кучево-дождевые. Подробнее классификацию облаков см. в Атласе облаков (PDF).
T - Температура воздуха - температура, измеренная на высоте 2 м над землей.
Td - Температура точки росы - температура, при понижении до которой содержащийся в воздухе водяной пар достигнет насыщения.
f - Относительная влажность воздуха - влажноcть воздуха, измеренная на высоте 2 м над землей.
Te - Эффективная температура - температура, которую ощущает одетый по сезону человек в тени. Характеристика душности погоды. При расчете учитывается влияние влажности воздуха и скорости ветра на теплоощущения человека.
Tes - Эффективная температура на солнце - температура, которую ощущает человек, с поправкой на солнечный нагрев. Характеристика знойности погоды. Зависит от высоты солнца над горизонтом, облачности и скорости ветра. Ночью, в пасмурную погоду, а также при ветре 12 м/с и более поправка равна нулю.
P - Атмосферное давление - приведенное к уровню моря атмосферное давление.
Po - Атмосферное давление - измеренное на уровне метеостанции атмосферное давление.
Tmin - Минимальная температура - минимум температуры воздуха на высоте 2 м над землей.
Tmax - Максимальная температура - максимум температуры воздуха на высоте 2 м над землей.
R - Количество осадков - Количество выпавших осадков за период времени, мм. При наведении курсора мыши на число - период времени, за который выпало указанное количество осадков.
R24 - Количество осадков - Количество выпавших осадков за 24 часа, мм.
S - Снежный покров - Высота снежного покрова, см. При наведении курсора мыши на число - состояние снежного покрова и степень покрытия местности в баллах.